Location: Mount Cross
(36.6390°N, 79.4878°W)
Time: 18:24:03
(UTC+00:00)

Courier 1B Rocket - Pass Details

Date: 27 March 2023
Orbit: 920 x 1202 km, 28.2° (Epoch: 08 June)

Event Time Altitude Azimuth Distance (km) Brightness Sun altitude
Rises 05:40:46 0° 263° (W) 3,637 - -50.6°
Reaches altitude 10° 05:44:12 10° 246° (WSW) 2,652 - -50.6°
Maximum altitude 05:48:32 19° 203° (SSW) 2,029 - -50.4°
Drops below altitude 10° 05:52:48 10° 159° (SSE) 2,599 - -50.3°
Sets 05:56:08 0° 142° (SE) 3,540 - -50.1°
